TimeEDT,TemperatureF,Dew PointF,Humidity,Sea Level PressureIn,VisibilityMPH,Wind Direction,Wind SpeedMPH,Gust SpeedMPH,PrecipitationIn,Events,Conditions,WindDirDegrees,DateUTC
12:56 AM,28.9,9.0,43,30.00,10.0,North,20.7,31.1,N/A,,Overcast,360,2014-03-24 04:56:00
1:56 AM,26.1,7.0,44,30.01,10.0,North,23.0,33.4,N/A,,Scattered Clouds,360,2014-03-24 05:56:00
2:56 AM,24.1,3.9,42,30.02,10.0,North,16.1,31.1,N/A,,Clear,350,2014-03-24 06:56:00
3:56 AM,24.1,9.0,53,30.04,10.0,North,19.6,34.5,N/A,,Overcast,10,2014-03-24 07:56:00
4:56 AM,21.9,6.1,51,30.05,10.0,North,16.1,26.5,N/A,,Overcast,10,2014-03-24 08:56:00
5:56 AM,21.9,8.1,55,30.08,10.0,NNW,15.0,28.8,N/A,,Overcast,340,2014-03-24 09:56:00
6:56 AM,21.0,8.1,57,30.10,10.0,North,13.8,21.9,N/A,,Mostly Cloudy,350,2014-03-24 10:56:00
7:56 AM,21.9,6.1,51,30.12,10.0,North,11.5,-,N/A,,Overcast,350,2014-03-24 11:56:00
8:56 AM,23.0,6.1,48,30.12,10.0,NNW,11.5,20.7,N/A,,Mostly Cloudy,340,2014-03-24 12:56:00
9:56 AM,24.1,6.1,46,30.13,10.0,NW,12.7,20.7,N/A,,Scattered Clouds,320,2014-03-24 13:56:00
10:56 AM,25.0,5.0,43,30.12,10.0,NNW,13.8,23.0,N/A,,Scattered Clouds,340,2014-03-24 14:56:00
11:56 AM,26.1,3.9,39,30.11,10.0,NNW,13.8,25.3,N/A,,Clear,330,2014-03-24 15:56:00
12:56 PM,26.1,1.9,35,30.10,10.0,NNW,12.7,20.7,N/A,,Clear,330,2014-03-24 16:56:00
1:56 PM,28.9,5.0,36,30.07,10.0,North,12.7,-,N/A,,Clear,360,2014-03-24 17:56:00
2:56 PM,30.0,5.0,35,30.06,10.0,NNE,9.2,18.4,N/A,,Clear,20,2014-03-24 18:56:00
3:56 PM,30.9,6.1,35,30.06,10.0,North,10.4,-,N/A,,Clear,360,2014-03-24 19:56:00
4:56 PM,30.0,5.0,35,30.05,10.0,NE,9.2,-,N/A,,Clear,40,2014-03-24 20:56:00
5:56 PM,30.0,5.0,35,30.06,10.0,SSW,3.5,-,N/A,,Clear,200,2014-03-24 21:56:00
6:56 PM,27.0,7.0,43,30.06,10.0,South,4.6,-,N/A,,Clear,170,2014-03-24 22:56:00
7:56 PM,25.0,8.1,49,30.09,10.0,Calm,Calm,-,N/A,,Clear,0,2014-03-24 23:56:00
8:56 PM,21.9,8.1,55,30.11,10.0,Calm,Calm,-,N/A,,Clear,0,2014-03-25 00:56:00
9:56 PM,19.9,9.0,62,30.12,10.0,Calm,Calm,-,N/A,,Clear,0,2014-03-25 01:56:00
10:56 PM,19.0,9.0,65,30.13,10.0,Calm,Calm,-,N/A,,Clear,0,2014-03-25 02:56:00
11:56 PM,17.1,8.1,68,30.14,10.0,Calm,Calm,-,N/A,,Clear,0,2014-03-25 03:56:00